Regional Weather Roundup
Issued by NWS

Home | Current Version | Previous Version | Text Only | Print | Product List | Glossary On
Versions: 1 2 3 4 5 6 7 8 9 10 11 12 13 14 15 16 17 18 19 20 21 22 23 24 25 26 27 28 29 30 31 32 33 34 35 36 37 38 39 40 41 42 43 44 45 46 47 48 49 50
000
ASUS43 KMPX 301910
RWRMN
WEATHER ROUNDUP FOR MINNESOTA
NATIONAL WEATHER SERVICE TWIN CITIES/CHANHASSEN MN
200 PM CDT THU OCT 30 2014


NOTE: "FAIR" INDICATES FEW OR NO CLOUDS BELOW 12,000 FEET WITH NO
SIGNIFICANT WEATHER AND/OR OBSTRUCTIONS TO VISIBILITY. N/A MEANS
CURRENT SKY AND/OR WEATHER CONDITIONS ARE NOT AVAILABLE.

MNZ060>063-068>070-302000-
   Twin Cities Metro

CITY           SKY/WX    TMP DP  RH WIND       PRES   REMARKS
TWIN CITIES    CLOUDY    48  36  63 N8        30.10S
ST PAUL        CLOUDY    48  37  65 N9        30.11S
CRYSTAL        CLOUDY    48  35  60 N9        30.10S
BLAINE         CLOUDY    46  37  71 NW9       30.10F
LAKEVILLE      CLOUDY    45  36  70 N5        30.09S
EDEN PRAIRIE   CLOUDY    48  37  65 N7        30.09S
SOUTH ST PAUL  CLOUDY    49  37  62 NW9       30.10S
LAKE ELMO      CLOUDY    46  36  66 N8        30.10S
$$
MNZ001>005-007-008-013>017-022>024-027-028-302000-
   Northwest Minnesota

CITY           SKY/WX    TMP DP  RH WIND       PRES   REMARKS
BEMIDJI        CLOUDY    37  29  75 N12       30.19S
HALLOCK          N/A     36  25  64 N20G26    30.35R
ROSEAU         SUNNY     37  19  48 N25G32    30.28R
WARROAD        FAIR      36  21  55 NW14G26   30.27R
THIEF RVR FALL CLOUDY   N/A N/A N/A N21G29    30.28R
CROOKSTON      CLOUDY    37  28  70 N22G28    30.31R
FOSSTON        CLOUDY    36  28  75 NW21      30.25R
DETROIT LAKES  CLOUDY    37  32  81 N18G31    30.24R
MOORHEAD       CLOUDY    37  37 100 N15       30.30R
PARK RAPIDS    CLOUDY    38  29  70 N14G25    30.18S
MAHNOMEN       CLOUDY    36  30  80 N17G23    30.24S
$$
MNZ006-009>011-018-025>026-302000-
   North Central Minnesota

CITY           SKY/WX    TMP DP  RH WIND       PRES   REMARKS
BAUDETTE       PTSUNNY   35  27  72 NW24G36   30.21R WCI  23
FLAG ISLAND    MOSUNNY   34  25  69 NW30      30.25R WCI  20
INTL FALLS     LGT SNOW  36  32  85 NW14G25   30.13S FOG
WASKISH        CLOUDY    37  34  87 NW12G20   30.19R
BIG FORK       LGT RAIN  39  32  75 NW10      30.14F
LONGVILLE      CLOUDY    39  32  75 NW8       30.15S
GRAND RAPIDS   CLOUDY    37  34  87 NW17      30.13S
CRANE LAKE     CLOUDY    34  34 100 NW8       30.12S WCI  27
ORR            PTSUNNY   36  34  93 NW6       30.08F
COOK           RAIN      36  34  93 N9        30.10S
WALKER         CLOUDY    37  29  72 NW10G17   30.17S
$$
MNZ012-019>021-037-302000-
   Northeast Minnesota

CITY           SKY/WX    TMP DP  RH WIND       PRES   REMARKS
DULUTH         CLOUDY    41  31  67 NW12      30.07F
ELY            PTSUNNY   39  36  87 NW8       30.05F
HIBBING        LGT RAIN  39  33  79 NW17      30.10F
EVELETH        PTSUNNY   37  32  81 NW12G17   30.10S
DULUTH HARBOR  CLOUDY    45  34  65 NW9       30.10F
TWO HARBORS    CLOUDY    45  36  70 NW7       30.05S
SILVER BAY     CLOUDY    45  34  65 NW7       30.03F
GRAND MARAIS     N/A     47  34  60 VRB5      30.02F
G MARAIS ARPRT PTSUNNY   37  32  81 W8        29.99F
$$
MNZ029>031-032-039>041-046>048-054>057-064-302000-
   West Central Minnesota

CITY           SKY/WX    TMP DP  RH WIND       PRES   REMARKS
FERGUS FALLS   CLOUDY    39  30  70 N14G26    30.24R
WHEATON        CLOUDY    39  34  81 N20G26    30.26R
MORRIS         MOSUNNY   45  39  81 N16G25    30.19R
ALEXANDRIA     CLOUDY    42  35  76 N14G23    30.18R
ELBOW LAKE     CLOUDY    40  33  75 N16G24    30.21R
WADENA         CLOUDY    39  30  70 N17       30.18R
GLENWOOD       PTSUNNY   43  37  81 N12G18    30.17R
APPLETON       CLOUDY    45  39  81 N16       30.18R
BENSON         CLOUDY    45  39  81 N14       30.18R
ORTONVILLE     CLOUDY    43  37  81 N18       30.21R
MADISON        SUNNY     46  43  87 N14G21    30.19R FOG
WILLMAR        LGT RAIN  46  37  71 N14       30.16R
$$
MNZ033>034-036-042>043-049>051-058-059-302000-
   Central Minnesota

CITY           SKY/WX    TMP DP  RH WIND       PRES   REMARKS
ST CLOUD       CLOUDY    47  35  63 N12       30.13S
SAUK CENTRE    CLOUDY    42  37  81 N10G17    30.16R
PAYNESVILLE    CLOUDY    41  35  80 W10       30.15R
AITKIN         CLOUDY    43  34  70 NW10      30.12S
PINE RIVER     CLOUDY    39  32  75 NW13      30.19R
BRAINERD       CLOUDY    40  32  73 N18       30.15S
STAPLES        CLOUDY    39  32  75 N17       30.17S
LONG PRAIRIE   CLOUDY    41  34  75 NW13      30.16R
LITTLE FALLS   CLOUDY    41  34  75 NW6       30.15S
LITCHFIELD     CLOUDY    46  39  76 N9        30.13S
BUFFALO        CLOUDY    47  35  63 N7        30.13S
MAPLE LAKE     CLOUDY    47  38  70 N10       30.13S
$$
MNZ037-044-045-052-053-302000-
   East Central Minnesota

CITY           SKY/WX    TMP DP  RH WIND       PRES   REMARKS
PRINCETON      CLOUDY    46  37  71 NW8       30.12S
MORA           CLOUDY    39  32  75 NW8       30.14S
CAMBRIDGE      CLOUDY    46  34  61 N6        30.10S
RUSH CITY      CLOUDY    42  35  74 N6        30.12S
MOOSE LAKE     CLOUDY    43  32  65 N9        30.09S
HINCKLEY       CLOUDY    41  34  75 NW7       30.11S
CLOQUET        CLOUDY    41  30  65 NW14G20   30.09S
MCGREGOR       CLOUDY    41  32  70 NW13G18   30.13S
$$
MNZ071>073-080-081-089-090-097-098-302000-
   Southwest Minnesota

CITY           SKY/WX    TMP DP  RH WIND       PRES   REMARKS
MONTEVIDEO     CLOUDY    45  41  87 N14       30.18R
GRANITE FALLS  CLOUDY    46  39  76 NW12      30.17R
CANBY          CLOUDY    44  40  88 N17       30.19R
MARSHALL       CLOUDY    46  37  71 N22       30.14R
REDWOOD FALLS  CLOUDY    50  38  63 N12       30.12S
OLIVIA         MOSUNNY   50  39  66 N13       30.13R
PIPESTONE      CLOUDY    52  37  58 N12G18    30.12R
WINDOM         CLOUDY    54  39  58 N17G23    30.09R
WORTHINGTON    PTSUNNY   54  37  54 N18       30.09S
JACKSON        MOSUNNY   55  34  44 VRB16G26  30.07S
TRACY          MOSUNNY   52  41  67 N21       30.13R
SLAYTON        MOSUNNY   51  37  57 N17G23    30.12R
$$
MNZ065>067-074>077-082>085-091>093-302000-
   South Central Minnesota

CITY           SKY/WX    TMP DP  RH WIND       PRES   REMARKS
MANKATO        CLOUDY    46  34  61 N12       30.09S
NEW ULM        SUNNY     52  37  58 N7        30.09S
ST JAMES       MOSUNNY   55  36  47 N8G16     30.09S
FAIRMONT       SUNNY     54  19  26 N15       30.07R
GLENCOE        MOSUNNY   51  39  65 N9        30.10S
FARIBAULT      CLOUDY    46  37  71 N7        30.09S
OWATONNA       MOSUNNY   46  37  71 N6        30.08R
WASECA         CLOUDY    48  36  61 N9        30.09S
ALBERT LEA     CLOUDY    52  37  58 CALM      30.06S
$$
MNZ078>079-086>088-094>096-302000-
   Southeast Minnesota

CITY           SKY/WX    TMP DP  RH WIND       PRES   REMARKS
ROCHESTER      CLOUDY    47  37  68 NW3       30.07F
RED WING       CLOUDY    46  36  66 CALM      30.08S
STANTON        CLOUDY    46  39  75 N6        30.08S
DODGE CENTER   PTSUNNY   48  37  66 N3        30.07S
WINONA         CLOUDY    46  37  71 CALM      30.07F
AUSTIN         CLOUDY    46  37  71 CALM      30.06S
PRESTON        CLOUDY    45  36  71 SW5       30.06F
$$
ABBREVIATIONS USED IN REMARKS
   TC - TEMPERATURES IN CELSIUS
  WCI - WIND CHILL INDEX
   HX - HEAT INDEX
  VSB - VISIBILITY
$$



USA.gov is the U.S. government's official web portal to all federal, state and local government web resources and services.